Weather in Morozovy Borki

Russia / Ryazan Oblast     53°57′16″N   40°55′08″E
temp.,
°C
wind,
m/s
gust,
m/s
humid.,
%
clouds,
%
prec.,
mm/h
press.,
hPa
HPBL,
m
27 february, sat
sat2700:00+2w61591100 0.1 1003824
03:00+1w6149097 0.1 1002832
06:000w7149099 0.1 1001827
09:00−1nw91595100 0.9 10021258
12:00−7nnw71285100 0.3 1004793
15:00−7nnw61085100 0.3 1007755
18:00−8nnw41090100 0.0 1009603
21:00−10nnw3992100 0.0 1012395
28 february, sun
sun2800:00−12nnw379437 0.0 1013215
03:00−13nnw269518 0.0 1014190
06:00−14nnw24960 0.0 1015116
09:00−12nnw249216 0.0 1016233
12:00−9nw248794 0.0 1016411
15:00−7nnw248997 0.1 1016464
18:00−8nw1296100 0.1 101736
21:00−7n2595100 0.1 1019233
1 march, mon
mon100:00−9n1196100 0.1 102021
03:00−10n1196100 0.1 102221
06:00−11n129777 0.0 102321
09:00−9nne019484 0.1 102484
12:00−5wnw118589 0.0 1024315
15:00−4sw239091 0.0 1024370
18:00−5sw369595 0.1 1023246
21:00−3wsw489597 0.1 1022330
2 march, tue
tue200:00−3sw51094100 0.1 1019355
03:00−1wsw61395100 0.3 1015638
06:000wsw61392100 0.1 1012706
09:00+1w71396100 0.1 1009814
12:00+1wnw61297100 0.5 1007786
15:00+1nw61193100 0.8 1007932
18:000nw51388100 0.1 1008732
21:00−1nw6139098 0.3 1009778
3 march, wed
wed300:00−2nw5119691 0.2 1010719
03:00−3nw6129496 0.6 1011698
06:00−4nw6129299 0.3 1012762
09:00−4nnw6129199 0.4 1014700
12:00−3nnw61086100 0.1 1015746
15:00−1nnw6107967 0.1 10171027
18:00−3nw41087100 0.1 1017505
21:00−4nw4129194 0.1 1018435